Flag for Bosnia-Herzegovina Weather past 2 weeks in Mostar, Bosnia-Herzegovina

Now
41 °F

Light rain. Fog.


Feels Like: 41 °F
Forecast: 30 / 46 °F
Wind: 2 mph from North

Location: Mostar

Current Time: Feb 1, 2015 at 9:04:46 AM

Latest Report: Feb 1, 2015 at 8:30 AM


Visibility: 2 mi

Pressure: 29.15 "Hg

Humidity: 93%

Dew point: 39 °F

Location of MostarLocation

Historic Weather in Mostar — Graph

°F

Mostar temperature yesterday

Maximum temperature yesterday: 45 °F (at 2:00 PM)
Minimum temperature yesterday: 36 °F (at 7:00 AM)
Average temperature yesterday: 40 °F

Past Weeks' High & Low Weather Summary

 TemperatureHumidityPressure
High57 °F (Jan 18, 2:00 AM)100% (Jan 18, 6:00 AM)30.18 "Hg (Jan 18, 6:00 AM)
Low25 °F (Jan 29, 7:00 AM)35% (Jan 25, 2:00 PM)28.85 "Hg (Jan 30, 5:00 PM)
Average45 °F77%29.74 "Hg
* Reported Jan 17 8:00 AM — Feb 1 8:00 AM, Mostar, Weather by CustomWeather, © 2014

Note: Actual official high and low records may vary slightly from our data, if they occured in-between our weather recording intervals... More about our weather records

Advertising

Mostar weather history for previous 24 hours

 ConditionsComfort  
Time TempWeatherWind HumidityBarometerVisibility
8:00 AM
Feb 1
39 °FRain. More clouds than sun.3 mph100%29.12 "Hg2 mi
7:30 AM39 °FLight rain. Broken clouds.3 mph100%29.12 "Hg5 mi
6:51 AM39 °FLight rain. Mostly cloudy.3 mph100%29.09 "Hg5 mi
6:30 AM39 °FLight rain. Passing clouds.2 mph93%29.06 "HgN/A
6:00 AM39 °FLight rain. Passing clouds.2 mph93%29.06 "HgN/A
5:00 AM39 °FPassing clouds.2 mph93%29.06 "HgN/A
4:00 AM41 °FPassing clouds.2 mph87%29.06 "HgN/A
3:00 AM39 °FPassing clouds.2 mph93%29.09 "HgN/A
2:00 AM39 °FPassing clouds.6 mph93%29.09 "HgN/A
1:00 AM39 °FPassing clouds.2 mph93%29.12 "HgN/A
12:00 AM39 °FPassing clouds.2 mph93%29.15 "HgN/A
11:00 PM
Jan 31
39 °FPassing clouds.2 mph93%29.15 "HgN/A
10:00 PM39 °FPassing clouds.2 mph93%29.18 "HgN/A
9:00 PM39 °FPassing clouds.3 mph93%29.21 "HgN/A
8:00 PM39 °FPassing clouds.5 mph93%29.21 "HgN/A
7:00 PM41 °FPassing clouds.2 mph93%29.21 "HgN/A
6:00 PM41 °FPassing clouds.3 mph87%29.21 "HgN/A
5:30 PM41 °FPassing clouds.2 mph87%29.21 "HgN/A
5:00 PM43 °FPassing clouds.1 mph87%29.21 "HgN/A
4:30 PM45 °FPassing clouds.1 mph81%29.21 "HgN/A
4:00 PM45 °FScattered clouds.1 mph81%29.21 "HgN/A
3:30 PM45 °FScattered clouds.3 mph81%29.21 "HgN/A
3:00 PM45 °FScattered clouds.3 mph81%29.21 "HgN/A
2:30 PM45 °FScattered clouds.3 mph81%29.21 "HgN/A
2:00 PM45 °FScattered clouds.3 mph76%29.24 "HgN/A
1:30 PM43 °FBroken clouds.1 mph81%29.24 "HgN/A
1:00 PM43 °FScattered clouds.2 mph81%29.24 "HgN/A
12:30 PM43 °FScattered clouds.3 mph81%29.27 "HgN/A
12:00 PM41 °FScattered clouds.2 mph81%29.27 "HgN/A
11:30 AM39 °FScattered clouds.2 mph87%29.27 "HgN/A
11:00 AM39 °FLight rain. Scattered clouds.3 mph87%29.27 "HgN/A
10:30 AM36 °FLight rain. Broken clouds.3 mph93%29.30 "Hg4 mi
10:00 AM36 °FLight rain. Broken clouds.6 mph93%29.30 "Hg4 mi
9:30 AM36 °FRain. Fog.8 mph87%29.27 "Hg3 mi
9:00 AM36 °FRain. Mostly cloudy.3 mph100%29.27 "Hg4 mi
Weather by CustomWeather, © 2014

See weather overviewHow to use our weather pages